Regional Weather Roundup
Issued by NWS Northern Indiana

Home | Current Version | Previous Version | Graphics & Text | Print | Product List | Glossary On
Versions: 1 2 3 4 5 6 7 8 9 10 11 12 13 14 15 16 17 18 19 20 21 22 23 24 25 26 27 28 29 30 31 32 33 34 35 36 37 38 39 40 41 42 43 44 45 46 47 48 49 50
000
ASUS43 KIWX 172100
RWRIWX

KIWX WEATHER ROUNDUP
NATIONAL WEATHER SERVICE NORTHERN INDIANA
500 PM EDT WED SEP 17 2014

NOTE: "FAIR" INDICATES FEW OR NO CLOUDS BELOW 12,000 FEET WITH NO
SIGNIFICANT WEATHER AND/OR OBSTRUCTIONS TO VISIBILITY.

* THESE STATIONS ARE NOT UNDER NWS QUALITY CONTROL. THEY ALSO MAY NOT
  REPORT WEATHER SUCH AS PRECIPITATION OR FOG.

INZ001>027-172200-
NORTHERN INDIANA

CITY           SKY/WX    TMP DP  RH WIND       PRES   REMARKS
VALPARAISO     SUNNY     68  46  45 SW6       29.99F
KNOX*          SUNNY     69  45  42 SW7       29.98F
SOUTH BEND     SUNNY     68  44  42 NW9       30.00S
ELKHART*       MOSUNNY   66  43  42 NW5       30.00S
GOSHEN         MOSUNNY   66  47  50 NW7       29.99F
ANGOLA*        PTSUNNY   66  57  72 NW8       29.99F
FORT WAYNE     MOSUNNY   66  47  50 W6        30.00F
PERU/GRISSOM   MOSUNNY   70  52  52 NW8       29.99S HAZE

$$
INZ028>050-172200-
CENTRAL INDIANA

CITY           SKY/WX    TMP DP  RH WIND       PRES   REMARKS
LAFAYETTE      CLOUDY    68  48  48 SW6       29.99F
KOKOMO*        MOSUNNY   72  48  43 W7        29.99S
MUNCIE*        SUNNY     65  47  52 VRB3      30.00F
INDIANAPOLIS   PTSUNNY   65  49  56 S7        30.00F

$$
MIZ043>046-050>051-056>058-064>065-071>073-077>080-172200-
SOUTHWEST LOWER MICHIGAN

CITY           SKY/WX    TMP DP  RH WIND       PRES   REMARKS
BATTLE CREEK   CLOUDY    65  44  46 W7        30.00S
BENTON HARBOR  SUNNY     63  45  51 VRB6      30.01S
COLDWATER*     PTSUNNY   69  45  42 W6        29.99S
HILLSDALE*     PTSUNNY   68  43  40 W3        30.00S
HOLLAND        MOSUNNY   65  47  52 W10       30.01F
GRAND RAPIDS   MOSUNNY   67  47  48 W10       30.00S
KALAMAZOO      MOSUNNY   65  45  48 W8        30.00S
STURGIS*       MOSUNNY   66  46  48 W5        29.99S
THREE RIVERS*  FAIR      68  48  48 W6        30.00S

$$
OHZ001>008-015>018-024>025-172200-
NORTHWEST OHIO

CITY           SKY/WX    TMP DP  RH WIND       PRES   REMARKS
DEFIANCE       MOSUNNY   67  45  45 VRB5      29.99F
FINDLAY        SUNNY     69  44  40 VRB3      29.98F
TOLEDO EXPRESS MOSUNNY   68  44  42 SW12      29.98F
TOLEDO METCALF SUNNY     68  44  42 W13       29.99F
LIMA           SUNNY     68  47  46 W6        29.99F

$$
&&


USA.gov is the U.S. government's official web portal to all federal, state and local government web resources and services.